Location: Betra
(48.4113°N, 8.6634°E)
Time: 16:30:55
(UTC+00:00)

Cosmos 1408 - Pass Details

Date: 23 May 2024
Orbit: 363 x 377 km, 82.6° (Epoch: 16 June)

Event Time Altitude Azimuth Distance (km) Brightness Sun altitude
Exits shadow 02:54:15 - 253° (WSW) 1,600 4.6 -6.3°
Reaches altitude 10° 02:55:24 10° 271° (W) 1,359 4.4 -6.2°
Maximum altitude 02:56:26 11° 292° (WNW) 1,281 4.4 -6.0°
Drops below altitude 10° 02:57:30 10° 313° (NW) 1,362 4.8 -5.9°
Sets 03:00:35 0° 350° (N) 2,218 6.4 -5.5°
